Location: Leipzig
(51.3392°N, 12.3528°E)
Time: 14:41:41
(UTC+01:00)

ISS - Pass Details

Date: 11 January 2018
Orbit: 402 x 407 km, 51.6° (Epoch: 18 January)

Event Time Altitude Azimuth Distance (km) Brightness Sun altitude
Exits shadow 07:13:57 - 266° (W) 1,516 -1.5 -8.7°
Reaches altitude 10° 07:14:07 10° 264° (W) 1,467 -1.5 -8.7°
Maximum altitude 07:16:33 19° 216° (SW) 1,029 -1.9 -8.3°
Drops below altitude 10° 07:18:59 10° 168° (SSE) 1,463 -0.5 -8.0°
Sets 07:21:25 0° 150° (SSE) 2,320 1.0 -7.6°
